Naples, Italy

8:07 PM CEST on August 30, 2016 (GMT +0200)
Capodichino Mil

Weather History for LIRN - January, 2014

Change the Weather History Date:

Wednesday, January 1, 2014

  Actual Average Record
Temperature  
Mean Temperature 54 °F -  
Max Temperature 59 °F 54 °F 69 °F (2009)
Min Temperature 48 °F 39 °F 33 °F (2000)
Degree Days  
Heating Degree Days 12    
Growing Degree Days 4 (Base 50)    
Moisture  
Dew Point 45 °F    
Average Humidity 74    
Maximum Humidity 88    
Minimum Humidity 56    
Precipitation  
Precipitation 0.00 in 0.14 in - ()
Sea Level Pressure  
Sea Level Pressure 30.08 in    
Wind  
Wind Speed 5 mph ()    
Max Wind Speed 8 mph    
Max Gust Speed -    
Visibility 6.1 miles    
Events      
Averages and records for this station are not official NWS values.
T = Trace of Precipitation, MM = Missing Value Source: Averaged Metar Reports

Daily Weather History Graph

Daily Weather History Graph

Search for Another Location

Airport or City:

Trip Planner

Search our weather history database for the weather conditions in past years. The results will help you decide how hot, cold, wet, or windy it might be!

Date:

Astronomy

Jan. 01, 2014 Rise Set
Actual Time 7:27 AM CET 4:45 PM CET
Civil Twilight 6:56 AM CET 5:16 PM CET
Nautical Twilight 6:22 AM CET 5:50 PM CET
Astronomical Twilight 5:48 AM CET 6:24 PM CET
Moon 7:01 AM CET (1/1) 5:10 PM CET (1/1)
Length of Visible Light 10h 19m
Length of Day
9h 18m
Waning Crescent, 0% of the Moon is Illuminated
Jan 1
Waning Crescent
Jan 1
New
Jan 8
First Quarter
Jan 16
Full
Jan 24
Last Quarter

Hourly Weather History & Observations

Time (CET) Temp. Dew Point Humidity Pressure Visibility Wind Dir Wind Speed Gust Speed Precip Events Conditions
12:20 AM 50.0 °F 42.8 °F 76% 30.04 in 2.5 mi NNW 6.9 mph - N/A   Smoke
12:50 AM 50.0 °F 42.8 °F 76% 30.04 in 1.9 mi North 6.9 mph - N/A   Smoke
1:00 AM 50 °F 43 °F 69% 30.06 in 2 mi NNW 6.9 mph - -   Smoke
1:20 AM 50.0 °F 42.8 °F 76% 30.04 in 3.1 mi NNW 8.1 mph - N/A   Smoke
1:50 AM 50.0 °F 42.8 °F 76% 30.04 in 3.1 mi NNW 6.9 mph - N/A   Smoke
2:20 AM 50.0 °F 42.8 °F 76% 30.06 in 4.3 mi NNW 6.9 mph - N/A   Unknown
2:50 AM 50.0 °F 42.8 °F 76% 30.06 in 4.3 mi NNW 8.1 mph - N/A   Unknown
3:20 AM 50.0 °F 42.8 °F 76% 30.04 in 5.0 mi NNW 6.9 mph - N/A   Scattered Clouds
3:50 AM 50.0 °F 42.8 °F 76% 30.04 in 5.0 mi North 5.8 mph - N/A   Scattered Clouds
4:00 AM 50 °F 44 °F 71% 30.06 in 5 mi North 5.8 mph - -   Mist
4:20 AM 50.0 °F 42.8 °F 76% 30.04 in 5.0 mi NNW 4.6 mph - N/A   Scattered Clouds
4:50 AM 48.2 °F 42.8 °F 82% 30.04 in 5.0 mi NW 6.9 mph - N/A   Scattered Clouds
5:20 AM 48.2 °F 42.8 °F 82% 30.04 in 5.0 mi NW 5.8 mph - N/A   Scattered Clouds
5:50 AM 48.2 °F 42.8 °F 82% 30.04 in 6.2 mi NW 6.9 mph - N/A   Scattered Clouds
6:20 AM 50.0 °F 42.8 °F 76% 30.04 in - NNW 6.9 mph - N/A   Clear
6:50 AM 50.0 °F 42.8 °F 76% 30.04 in - NNW 6.9 mph - N/A   Clear
7:00 AM 49 °F 43 °F 74% 30.06 in 9 mi NNW 6.9 mph - -  
7:20 AM 50.0 °F 42.8 °F 76% 30.04 in - NNW 6.9 mph - N/A   Clear
7:50 AM 50.0 °F 42.8 °F 76% 30.06 in - NW 6.9 mph - N/A   Clear
8:20 AM 50.0 °F 42.8 °F 76% 30.06 in - WNW 8.1 mph - N/A   Clear
8:50 AM 51.8 °F 44.6 °F 76% 30.06 in 6.2 mi NW 8.1 mph - N/A   Scattered Clouds
9:20 AM 53.6 °F 44.6 °F 72% 30.09 in 6.2 mi NW 5.8 mph - N/A   Scattered Clouds
9:50 AM 55.4 °F 44.6 °F 67% 30.09 in 6.2 mi NW 4.6 mph - N/A   Scattered Clouds
10:00 AM 54 °F 45 °F 63% 30.10 in 9 mi NW 5.8 mph - -   Mostly Cloudy
10:20 AM 53.6 °F 44.6 °F 72% 30.09 in 6.2 mi NW 5.8 mph - N/A   Scattered Clouds
10:50 AM 55.4 °F 46.4 °F 72% 30.09 in 6.2 mi NW 5.8 mph - N/A   Mostly Cloudy
11:20 AM 55.4 °F 46.4 °F 72% 30.09 in 6.2 mi North 5.8 mph - N/A   Mostly Cloudy
11:50 AM 57.2 °F 46.4 °F 67% 30.06 in 6.2 mi North 5.8 mph - N/A   Mostly Cloudy
12:20 PM 57.2 °F 46.4 °F 67% 30.06 in 6.2 mi NNW 4.6 mph - N/A   Mostly Cloudy
12:50 PM 59.0 °F 48.2 °F 67% 30.06 in 6.2 mi Variable 4.6 mph - N/A   Mostly Cloudy
1:00 PM 58 °F 46 °F 56% 30.08 in 9 mi NNW 5.8 mph - -   Mostly Cloudy
1:20 PM 59.0 °F 46.4 °F 63% 30.06 in 6.2 mi North 4.6 mph - N/A   Mostly Cloudy
1:50 PM 59.0 °F 46.4 °F 63% 30.06 in 6.2 mi NNW 5.8 mph - N/A   Mostly Cloudy
2:20 PM 59.0 °F 48.2 °F 67% 30.06 in 6.2 mi North 4.6 mph - N/A   Mostly Cloudy
2:50 PM 59.0 °F 48.2 °F 67% 30.06 in 6.2 mi WNW 5.8 mph - N/A   Mostly Cloudy
3:20 PM 59.0 °F 46.4 °F 63% 30.06 in 6.2 mi NNW 6.9 mph - N/A   Partly Cloudy
3:50 PM 59.0 °F 46.4 °F 63% 30.06 in - North 5.8 mph - N/A   Clear
4:00 PM 58 °F 47 °F 58% 30.09 in 12 mi North 5.8 mph - -  
4:20 PM 59.0 °F 46.4 °F 63% 30.06 in - NNW 5.8 mph - N/A   Clear
4:50 PM 55.4 °F 46.4 °F 72% 30.09 in - NW 3.5 mph - N/A   Clear
5:20 PM 55.4 °F 46.4 °F 72% 30.09 in - WNW 5.8 mph - N/A   Clear
5:50 PM 53.6 °F 46.4 °F 77% 30.09 in - WNW 5.8 mph - N/A   Clear
6:20 PM 53.6 °F 48.2 °F 82% 30.09 in - WNW 5.8 mph - N/A   Clear
6:50 PM 51.8 °F 46.4 °F 82% 30.09 in - NW 3.5 mph - N/A   Clear
7:00 PM 52 °F 47 °F 77% 30.12 in 12 mi WNW 3.5 mph - -  
7:20 PM 51.8 °F 46.4 °F 82% 30.09 in - WNW 4.6 mph - N/A   Clear
7:50 PM 50.0 °F 46.4 °F 87% 30.12 in - West 4.6 mph - N/A   Clear
8:20 PM 51.8 °F 46.4 °F 82% 30.12 in - WNW 5.8 mph - N/A   Clear
8:50 PM 53.6 °F 46.4 °F 77% 30.12 in - Variable 2.3 mph - N/A   Clear
9:20 PM 51.8 °F 46.4 °F 82% 30.12 in - WSW 3.5 mph - N/A   Clear
9:50 PM 51.8 °F 46.4 °F 82% 30.12 in - Variable 1.2 mph - N/A   Clear
10:00 PM 53 °F 47 °F 75% 30.15 in 12 mi NE 1.2 mph - -  
10:20 PM 51.8 °F 48.2 °F 88% 30.12 in - Variable 1.2 mph - N/A   Clear
10:50 PM 51.8 °F 46.4 °F 82% 30.12 in - Calm Calm - N/A   Clear
11:20 PM 51.8 °F 46.4 °F 82% 30.12 in - Calm Calm - N/A   Clear
11:50 PM 50.0 °F 46.4 °F 87% 30.12 in - NE 2.3 mph - N/A   Clear